sat.trackr.live / text

‹ back to catalog

STARLINK-34551

NORAD 64682 · 2025-139U

PAYLOAD ACTIVE UNKNOWN

§ Identity

Operator
Country
US
Launch date
2025-06-28
Launch site
AFETR
Launch vehicle
Mass (kg)
RCS (m²)

Purposes: comms

External: N2YO · Heavens-Above · Gunter

§ Orbital elements

Epoch: 2026-09-20T08:37:03.758592Z

Period
93.85 min
Inclination
53.1572°
Eccentricity
0.0001089
Mean motion
15.34405589 rev/d
Perigee alt
461.9 km
Apogee alt
463.4 km
Semi-major
6,840.8 km
B*
6.0050e-4
RAAN
290.4183°
Arg perigee
104.3976°
Mean anomaly
255.7148°
Rev number
7,026

§ Raw data

STARLINK-345511 64682U 25139U   26263.35907128  .00019970  00000+0  60050-3 0  99992 64682  53.1572 290.4183 0001089 104.3976 255.7148 15.34405589 70267

JSON: /api/v1/satellites/64682 · /tle

For live sub-satellite position, see the globe view (requires WebGL).

§ Visibility from observer

Set your observer location to see the next 7 days of passes ≥ 10°. The values pass through the URL so the page stays shareable.

No JS? Fill the form by hand. The geolocation button needs JavaScript.